Weather History for Clinton, OK

Change the Weather History Date:

Friday, January 10, 2014

  Actual Average (KCSM) Record (KCSM)
Temperature  
Mean Temperature 44 °F -  
Max Temperature 55 °F 46 °F 66 °F (2000)
Min Temperature 32 °F 27 °F 14 °F (2011)
Degree Days  
Heating Degree Days 22    
Moisture  
Dew Point 28 °F    
Average Humidity 63    
Maximum Humidity 100    
Minimum Humidity 20    
Precipitation  
Precipitation 0.00 in - - ()
Sea Level Pressure  
Sea Level Pressure 29.77 in    
Wind  
Wind Speed 11 mph (WSW)    
Max Wind Speed 22 mph    
Max Gust Speed 30 mph    
Visibility 6 miles    
Events Fog , Rain , Snow    
Averages and records for this station are not official NWS values.
T = Trace of Precipitation, MM = Missing Value Source: NWS Daily Summary

Daily Weather History Graph

Daily Weather History Graph

Search for Another Location

Airport:

Trip Planner

Search our weather history database for the weather conditions in past years. The results will help you decide how hot, cold, wet, or windy it might be!

Date:

Astronomy

Jan. 10, 2014 Rise Set
Actual Time 7:45 AM CST 5:41 PM CST
Civil Twilight 7:17 AM CST 6:09 PM CST
Nautical Twilight 6:46 AM CST 6:40 PM CST
Astronomical Twilight 6:15 AM CST 7:11 PM CST
Moon 1:43 PM CST (1/10) 2:57 AM CST (1/10)
Length of Visible Light 10h 51m
Length of Day
9h 56m
Waxing Gibbous, 75% of the Moon is Illuminated
Jan 10
Waxing Gibbous
Jan 15
Full
Jan 23
Last Quarter
Jan 30
New
Feb 6
First Quarter

Hourly Weather History & Observations

Time (CST) Temp. Windchill Dew Point Humidity Pressure Visibility Wind Dir Wind Speed Gust Speed Precip Events Conditions
12:15 AM 35.6 °F 26.6 °F 33.8 °F 93% 29.92 in 2.5 mi South 13.8 mph - N/A   Overcast
12:35 AM 35.6 °F 27.1 °F 33.8 °F 93% 29.91 in 3.0 mi South 12.7 mph - N/A   Overcast
12:55 AM 35.6 °F 27.5 °F 33.8 °F 93% 29.90 in 1.5 mi South 11.5 mph - N/A   Overcast
1:15 AM 35.6 °F 28.6 °F 33.8 °F 93% 29.88 in 0.8 mi South 9.2 mph - N/A   Overcast
1:35 AM 35.6 °F 29.2 °F 33.8 °F 93% 29.86 in 0.5 mi South 8.1 mph - N/A Fog Fog
1:55 AM 35.6 °F 28.6 °F 35.6 °F 100% 29.85 in 0.5 mi South 9.2 mph - N/A Fog Fog
2:15 AM 37.4 °F 30.8 °F 35.6 °F 93% 29.84 in 0.5 mi South 9.2 mph - N/A Fog Fog
2:35 AM 35.6 °F 28.6 °F 35.6 °F 100% 29.84 in 0.5 mi South 9.2 mph - N/A Fog Fog
2:55 AM 35.6 °F 29.2 °F 33.8 °F 93% 29.84 in 0.5 mi South 8.1 mph - N/A Fog Fog
3:15 AM 35.6 °F 31.7 °F 35.6 °F 100% 29.83 in 0.5 mi South 4.6 mph - N/A Fog Fog
3:35 AM 35.6 °F 31.7 °F 35.6 °F 100% 29.82 in 0.5 mi South 4.6 mph - N/A Fog Fog
3:55 AM 35.6 °F 31.7 °F 35.6 °F 100% 29.81 in 0.5 mi South 4.6 mph - N/A Fog Fog
4:15 AM 35.6 °F 28.6 °F 35.6 °F 100% 29.80 in 0.5 mi South 9.2 mph - N/A Fog Fog
4:35 AM 37.4 °F 28.9 °F 35.6 °F 93% 29.78 in 0.5 mi South 13.8 mph - N/A Snow Light Snow
4:55 AM 37.4 °F 28.5 °F 37.4 °F 100% 29.75 in 0.5 mi South 15.0 mph - N/A Snow Light Snow
5:15 AM 39.2 °F 31.6 °F 37.4 °F 93% 29.76 in 0.5 mi South 12.7 mph - N/A   Light Drizzle
5:35 AM 39.2 °F 32.5 °F 37.4 °F 93% 29.75 in 0.5 mi South 10.4 mph - N/A Fog Fog
5:55 AM 41.0 °F 33.1 °F 37.4 °F 87% 29.74 in 0.5 mi South 15.0 mph - N/A Rain Light Rain
6:15 AM 41.0 °F 33.1 °F 37.4 °F 87% 29.74 in 0.5 mi South 15.0 mph - N/A   Light Drizzle
6:35 AM 41.0 °F 32.8 °F 37.4 °F 87% 29.73 in 0.5 mi South 16.1 mph - N/A   Overcast
6:55 AM 41.0 °F 32.8 °F 37.4 °F 87% 29.72 in 0.8 mi South 16.1 mph 21.9 mph N/A   Overcast
7:15 AM 41.0 °F 34.3 °F 37.4 °F 87% 29.74 in 0.8 mi SSW 11.5 mph - N/A   Overcast
7:35 AM 41.0 °F 35.2 °F 37.4 °F 87% 29.74 in 0.8 mi SSW 9.2 mph - N/A   Overcast
7:55 AM 41.0 °F 34.3 °F 39.2 °F 93% 29.74 in 1.0 mi South 11.5 mph - N/A   Overcast
8:15 AM 41.0 °F 36.4 °F 39.2 °F 93% 29.74 in 2.5 mi South 6.9 mph - N/A   Overcast
8:35 AM 41.0 °F 34.3 °F 39.2 °F 93% 29.73 in 2.5 mi South 11.5 mph - N/A   Overcast
8:55 AM 41.0 °F 35.8 °F 41.0 °F 100% 29.74 in 3.0 mi SSW 8.1 mph - N/A   Overcast
9:15 AM 42.8 °F 36.6 °F 41.0 °F 93% 29.74 in 4.0 mi SSW 11.5 mph - N/A   Overcast
9:35 AM 42.8 °F 37.0 °F 41.0 °F 93% 29.74 in 5.0 mi SW 10.4 mph - N/A   Overcast
9:55 AM 42.8 °F 38.6 °F 41.0 °F 93% 29.76 in 7.0 mi WSW 6.9 mph - N/A   Overcast
10:15 AM 42.8 °F 38.6 °F 41.0 °F 93% 29.76 in 7.0 mi WSW 6.9 mph - N/A   Overcast
10:35 AM 42.8 °F 36.6 °F 41.0 °F 93% 29.76 in 7.0 mi WSW 11.5 mph - N/A   Scattered Clouds
10:55 AM 46.4 °F 40.7 °F 41.0 °F 81% 29.75 in 10.0 mi West 12.7 mph - N/A   Clear
11:15 AM 48.2 °F - 37.4 °F 66% 29.74 in 10.0 mi WNW 13.8 mph 19.6 mph N/A   Clear
11:35 AM 50.0 °F - 32.0 °F 50% 29.73 in 10.0 mi WNW 16.1 mph 21.9 mph N/A   Clear
11:55 AM 51.8 °F - 28.4 °F 41% 29.72 in 10.0 mi NW 19.6 mph 24.2 mph N/A   Clear
12:15 PM 51.8 °F - 28.4 °F 41% 29.71 in 10.0 mi NNW 21.9 mph 29.9 mph N/A   Clear
12:35 PM 53.6 °F - 26.6 °F 35% 29.70 in 10.0 mi NNW 15.0 mph 23.0 mph N/A   Clear
12:55 PM 53.6 °F - 23.0 °F 30% 29.69 in 10.0 mi NNW 13.8 mph 26.5 mph N/A   Clear
1:15 PM 53.6 °F - 23.0 °F 30% 29.68 in 10.0 mi NNW 18.4 mph - N/A   Clear
1:35 PM 55.4 °F - 21.2 °F 26% 29.66 in 10.0 mi NNW 19.6 mph - N/A   Clear
1:55 PM 55.4 °F - 21.2 °F 26% 29.67 in 10.0 mi NNW 16.1 mph - N/A   Clear
2:15 PM 55.4 °F - 21.2 °F 26% 29.67 in 10.0 mi NW 19.6 mph 25.3 mph N/A   Clear
2:35 PM 55.4 °F - 19.4 °F 25% 29.67 in 10.0 mi NW 18.4 mph 21.9 mph N/A   Clear
2:55 PM 55.4 °F - 17.6 °F 23% 29.68 in 10.0 mi NW 16.1 mph - N/A   Clear
3:15 PM 55.4 °F - 17.6 °F 23% 29.69 in 10.0 mi NW 11.5 mph 21.9 mph N/A   Clear
3:35 PM 55.4 °F - 17.6 °F 23% 29.69 in 10.0 mi NW 12.7 mph - N/A   Clear
3:55 PM 55.4 °F - 15.8 °F 21% 29.69 in 10.0 mi NW 12.7 mph - N/A   Clear
4:15 PM 55.4 °F - 14.0 °F 20% 29.71 in 10.0 mi WNW 15.0 mph 21.9 mph N/A   Clear
4:35 PM 53.6 °F - 14.0 °F 21% 29.73 in 10.0 mi WNW 13.8 mph - N/A   Clear
4:55 PM 53.6 °F - 15.8 °F 22% 29.73 in 10.0 mi WNW 8.1 mph - N/A   Clear
5:15 PM 51.8 °F - 14.0 °F 22% 29.74 in 10.0 mi West 8.1 mph - N/A   Clear
5:35 PM 50.0 °F - 14.0 °F 24% 29.74 in 10.0 mi West 3.5 mph - N/A   Clear
5:55 PM 48.2 °F - 15.8 °F 27% 29.74 in 10.0 mi WSW 3.5 mph - N/A   Clear
6:15 PM 46.4 °F 45.2 °F 15.8 °F 29% 29.74 in 10.0 mi WSW 3.5 mph - N/A   Clear
6:35 PM 48.2 °F - 15.8 °F 27% 29.75 in 10.0 mi WSW 3.5 mph - N/A   Clear
6:55 PM 46.4 °F 45.2 °F 17.6 °F 32% 29.75 in 10.0 mi SW 3.5 mph - N/A   Clear
7:15 PM 42.8 °F 40.1 °F 17.6 °F 36% 29.75 in 10.0 mi SSW 4.6 mph - N/A   Clear
7:35 PM 42.8 °F 40.1 °F 17.6 °F 36% 29.76 in 10.0 mi SW 4.6 mph - N/A   Clear
7:55 PM 42.8 °F 40.1 °F 19.4 °F 39% 29.77 in 10.0 mi WSW 4.6 mph - N/A   Clear
8:15 PM 42.8 °F 40.1 °F 19.4 °F 39% 29.78 in 10.0 mi West 4.6 mph - N/A   Clear
8:35 PM 41.0 °F 38.0 °F 19.4 °F 42% 29.79 in 10.0 mi West 4.6 mph - N/A   Clear
8:55 PM 35.6 °F 31.7 °F 19.4 °F 52% 29.80 in 10.0 mi NW 4.6 mph - N/A   Clear
9:15 PM 37.4 °F 34.9 °F 19.4 °F 48% 29.81 in 10.0 mi NNW 3.5 mph - N/A   Clear
9:35 PM 37.4 °F 34.9 °F 19.4 °F 48% 29.82 in 10.0 mi West 3.5 mph - N/A   Clear
9:55 PM 32.0 °F 28.7 °F 19.4 °F 60% 29.82 in 10.0 mi WSW 3.5 mph - N/A   Clear
10:15 PM 33.8 °F 29.6 °F 19.4 °F 56% 29.83 in 10.0 mi WSW 4.6 mph - N/A   Clear
10:35 PM 33.8 °F 29.6 °F 19.4 °F 56% 29.84 in 10.0 mi WSW 4.6 mph - N/A   Clear
10:55 PM 33.8 °F 29.6 °F 19.4 °F 56% 29.84 in 10.0 mi WSW 4.6 mph - N/A   Clear
11:15 PM 32.0 °F 26.4 °F 19.4 °F 60% 29.84 in 10.0 mi West 5.8 mph - N/A   Clear
11:35 PM 32.0 °F 27.5 °F 19.4 °F 60% 29.85 in 10.0 mi West 4.6 mph - N/A   Clear
11:55 PM 32.0 °F 27.5 °F 17.6 °F 55% 29.85 in 10.0 mi West 4.6 mph - N/A   Clear